Time,TemperatureF,DewpointF,PressureIn,WindDirection,WindDirectionDegrees,WindSpeedMPH,WindSpeedGustMPH,Humidity,HourlyPrecipIn,Conditions,Clouds,dailyrainin,SoftwareType,DateUTC
2013-04-14 00:00:00,57.2,54.6,29.99,SSE,160,0.0,0.0,91,0.00,,,0.00,Wunderground v.1.15,2013-04-14 04:00:00,
2013-04-14 00:05:00,56.6,54.0,29.99,SSE,160,0.0,0.0,91,0.00,,,0.00,Wunderground v.1.15,2013-04-14 04:05:00,
2013-04-14 00:10:00,56.6,54.3,29.99,SSE,160,0.0,0.0,92,0.00,,,0.00,Wunderground v.1.15,2013-04-14 04:10:00,
2013-04-14 00:15:00,56.6,54.3,29.99,SSE,160,0.0,0.0,92,0.00,,,0.00,Wunderground v.1.15,2013-04-14 04:15:00,
2013-04-14 00:20:00,56.3,54.0,29.99,SSE,160,0.0,0.0,92,0.00,,,0.00,Wunderground v.1.15,2013-04-14 04:20:00,
2013-04-14 00:25:00,56.0,54.0,30.00,SSE,160,0.0,0.0,93,0.00,,,0.00,Wunderground v.1.15,2013-04-14 04:25:00,
2013-04-14 00:35:00,55.8,53.5,30.00,SSE,160,0.0,0.0,92,0.00,,,0.00,Wunderground v.1.15,2013-04-14 04:35:00,
2013-04-14 00:45:00,55.6,53.6,30.00,SSE,160,0.0,0.0,93,0.00,,,0.00,Wunderground v.1.15,2013-04-14 04:45:00,
2013-04-14 00:50:00,55.1,53.1,30.00,SSE,160,0.0,0.0,93,0.00,,,0.00,Wunderground v.1.15,2013-04-14 04:50:00,
2013-04-14 01:00:00,54.8,53.1,30.00,SSE,160,0.0,0.0,94,0.00,,,0.00,Wunderground v.1.15,2013-04-14 05:00:00,
2013-04-14 01:05:00,54.9,53.2,30.00,SSE,160,0.0,0.0,94,0.00,,,0.00,Wunderground v.1.15,2013-04-14 05:05:00,
2013-04-14 01:15:00,54.5,52.8,30.00,SSE,160,0.0,0.0,94,0.00,,,0.00,Wunderground v.1.15,2013-04-14 05:15:00,
2013-04-14 01:20:00,54.5,52.8,30.00,SSE,160,0.0,0.0,94,0.00,,,0.00,Wunderground v.1.15,2013-04-14 05:20:00,
2013-04-14 01:30:00,54.4,52.7,30.00,SSE,160,0.0,0.0,94,0.00,,,0.00,Wunderground v.1.15,2013-04-14 05:30:00,
2013-04-14 01:35:00,54.4,53.0,30.00,SSE,160,0.0,0.0,95,0.00,,,0.00,Wunderground v.1.15,2013-04-14 05:35:00,
2013-04-14 01:45:00,54.3,52.6,30.00,SSE,160,0.0,0.0,94,0.00,,,0.00,Wunderground v.1.15,2013-04-14 05:45:00,
2013-04-14 01:55:00,54.7,53.3,30.00,SSE,160,0.0,0.0,95,0.00,,,0.00,Wunderground v.1.15,2013-04-14 05:55:00,
2013-04-14 02:00:00,54.3,52.6,29.99,SSE,160,0.0,0.0,94,0.00,,,0.00,Wunderground v.1.15,2013-04-14 06:00:00,
2013-04-14 02:10:00,54.1,52.7,29.99,SSE,160,0.0,0.0,95,0.00,,,0.00,Wunderground v.1.15,2013-04-14 06:10:00,
2013-04-14 02:15:00,53.7,52.0,29.99,SSE,160,0.0,0.0,94,0.00,,,0.00,Wunderground v.1.15,2013-04-14 06:15:00,
2013-04-14 02:25:00,53.7,52.3,29.99,SSE,160,0.0,0.0,95,0.00,,,0.00,Wunderground v.1.15,2013-04-14 06:25:00,
2013-04-14 02:30:00,53.5,52.1,29.98,SSE,160,0.0,0.0,95,0.00,,,0.00,Wunderground v.1.15,2013-04-14 06:30:00,
2013-04-14 02:40:00,53.5,52.1,29.98,SSE,160,0.0,0.0,95,0.00,,,0.00,Wunderground v.1.15,2013-04-14 06:40:00,
2013-04-14 02:50:00,53.2,51.8,29.98,SSE,160,0.0,0.0,95,0.00,,,0.00,Wunderground v.1.15,2013-04-14 06:50:00,
2013-04-14 02:55:00,53.5,52.1,29.99,SSE,160,0.0,0.0,95,0.00,,,0.00,Wunderground v.1.15,2013-04-14 06:55:00,
2013-04-14 03:05:00,53.4,52.0,29.99,SSE,160,0.0,0.0,95,0.00,,,0.00,Wunderground v.1.15,2013-04-14 07:05:00,
2013-04-14 03:10:00,53.7,52.3,29.99,SSE,160,0.0,0.0,95,0.00,,,0.00,Wunderground v.1.15,2013-04-14 07:10:00,
2013-04-14 03:20:00,53.9,52.5,29.99,SSE,160,0.0,0.0,95,0.00,,,0.00,Wunderground v.1.15,2013-04-14 07:20:00,
2013-04-14 03:30:00,54.1,53.0,29.99,SSE,160,0.0,0.0,96,0.00,,,0.00,Wunderground v.1.15,2013-04-14 07:30:00,
2013-04-14 03:35:00,53.7,52.3,29.99,SSE,160,0.0,0.0,95,0.00,,,0.00,Wunderground v.1.15,2013-04-14 07:35:00,
2013-04-14 03:45:00,53.1,51.7,29.99,SSE,160,0.0,0.0,95,0.00,,,0.00,Wunderground v.1.15,2013-04-14 07:45:00,
2013-04-14 03:55:00,53.0,51.6,29.99,SSE,160,0.0,0.0,95,0.00,,,0.00,Wunderground v.1.15,2013-04-14 07:55:00,
2013-04-14 04:00:00,52.9,51.5,29.99,SSE,160,0.0,0.0,95,0.00,,,0.00,Wunderground v.1.15,2013-04-14 08:00:00,
2013-04-14 04:10:00,52.7,51.3,29.99,SSE,160,0.0,0.0,95,0.00,,,0.00,Wunderground v.1.15,2013-04-14 08:10:00,
2013-04-14 04:20:00,52.2,50.8,29.99,SSE,160,0.0,0.0,95,0.00,,,0.00,Wunderground v.1.15,2013-04-14 08:20:00,
2013-04-14 04:25:00,52.1,50.7,29.99,SSE,160,0.0,0.0,95,0.00,,,0.00,Wunderground v.1.15,2013-04-14 08:25:00,
2013-04-14 04:35:00,52.1,50.7,29.99,SSE,160,0.0,0.0,95,0.00,,,0.00,Wunderground v.1.15,2013-04-14 08:35:00,
2013-04-14 04:40:00,51.8,50.4,29.99,SSE,160,0.0,0.0,95,0.00,,,0.00,Wunderground v.1.15,2013-04-14 08:40:00,
2013-04-14 04:50:00,52.2,51.1,29.99,SSE,159,1.0,1.0,96,0.00,,,0.00,Wunderground v.1.15,2013-04-14 08:50:00,
2013-04-14 04:55:00,52.2,51.1,29.99,SSE,160,1.0,1.0,96,0.00,,,0.00,Wunderground v.1.15,2013-04-14 08:55:00,
2013-04-14 05:05:00,51.8,50.7,30.00,SSE,160,0.0,0.0,96,0.00,,,0.00,Wunderground v.1.15,2013-04-14 09:05:00,
2013-04-14 05:15:00,52.1,51.0,30.00,SSE,160,0.0,0.0,96,0.00,,,0.00,Wunderground v.1.15,2013-04-14 09:15:00,
2013-04-14 05:20:00,52.3,51.2,30.00,SSE,160,0.0,0.0,96,0.00,,,0.00,Wunderground v.1.15,2013-04-14 09:20:00,
2013-04-14 05:30:00,52.2,51.1,30.00,SSE,160,0.0,0.0,96,0.00,,,0.00,Wunderground v.1.15,2013-04-14 09:30:00,
2013-04-14 05:40:00,51.7,50.6,30.01,SSE,160,0.0,0.0,96,0.00,,,0.00,Wunderground v.1.15,2013-04-14 09:40:00,
2013-04-14 05:45:00,51.9,50.8,30.01,SSE,160,0.0,0.0,96,0.00,,,0.00,Wunderground v.1.15,2013-04-14 09:45:00,
2013-04-14 05:55:00,51.5,50.4,30.02,SSE,160,0.0,0.0,96,0.00,,,0.00,Wunderground v.1.15,2013-04-14 09:55:00,
2013-04-14 06:05:00,51.7,50.6,30.02,SSE,160,0.0,0.0,96,0.00,,,0.00,Wunderground v.1.15,2013-04-14 10:05:00,
2013-04-14 06:15:00,51.1,50.0,30.02,SSE,160,0.0,0.0,96,0.00,,,0.00,Wunderground v.1.15,2013-04-14 10:15:00,
2013-04-14 06:25:00,50.9,49.8,30.02,SSE,160,0.0,0.0,96,0.00,,,0.00,Wunderground v.1.15,2013-04-14 10:25:00,
2013-04-14 06:35:00,50.9,49.8,30.02,SSE,159,0.0,0.0,96,0.00,,,0.00,Wunderground v.1.15,2013-04-14 10:35:00,
2013-04-14 06:45:00,50.9,49.8,30.03,SSE,159,1.0,2.0,96,0.00,,,0.00,Wunderground v.1.15,2013-04-14 10:45:00,
2013-04-14 06:50:00,50.7,49.6,30.03,ENE,68,1.0,2.0,96,0.00,,,0.00,Wunderground v.1.15,2013-04-14 10:50:00,
2013-04-14 07:00:00,50.7,49.6,30.04,ENE,67,0.0,0.0,96,0.00,,,0.00,Wunderground v.1.15,2013-04-14 11:00:00,
2013-04-14 07:05:00,50.8,49.7,30.04,ENE,67,0.0,0.0,96,0.00,,,0.00,Wunderground v.1.15,2013-04-14 11:05:00,
2013-04-14 07:15:00,51.0,49.9,30.05,ENE,67,0.0,0.0,96,0.00,,,0.00,Wunderground v.1.15,2013-04-14 11:15:00,
2013-04-14 07:20:00,51.2,50.1,30.05,ENE,67,0.0,0.0,96,0.00,,,0.00,Wunderground v.1.15,2013-04-14 11:20:00,
2013-04-14 07:30:00,51.4,50.3,30.06,ENE,67,0.0,0.0,96,0.00,,,0.00,Wunderground v.1.15,2013-04-14 11:30:00,
2013-04-14 07:35:00,51.6,50.5,30.06,ENE,67,0.0,0.0,96,0.00,,,0.00,Wunderground v.1.15,2013-04-14 11:35:00,
2013-04-14 07:45:00,51.9,50.8,30.06,ENE,67,0.0,0.0,96,0.00,,,0.00,Wunderground v.1.15,2013-04-14 11:45:00,
2013-04-14 07:55:00,52.4,51.3,30.05,ENE,67,0.0,0.0,96,0.00,,,0.00,Wunderground v.1.15,2013-04-14 11:55:00,
2013-04-14 08:00:00,52.8,51.7,30.05,ENE,67,0.0,0.0,96,0.00,,,0.00,Wunderground v.1.15,2013-04-14 12:00:00,
2013-04-14 08:10:00,53.7,52.9,30.05,ENE,67,1.0,1.0,97,0.00,,,0.00,Wunderground v.1.15,2013-04-14 12:10:00,
2013-04-14 08:20:00,54.6,53.8,30.06,ENE,67,0.0,0.0,97,0.00,,,0.00,Wunderground v.1.15,2013-04-14 12:20:00,
2013-04-14 08:30:00,55.2,54.4,30.06,ENE,67,0.0,0.0,97,0.00,,,0.00,Wunderground v.1.15,2013-04-14 12:30:00,
2013-04-14 08:35:00,55.6,54.8,30.06,ENE,67,0.0,1.0,97,0.00,,,0.00,Wunderground v.1.15,2013-04-14 12:35:00,
2013-04-14 08:45:00,56.9,56.1,30.06,ENE,67,0.0,1.0,97,0.00,,,0.00,Wunderground v.1.15,2013-04-14 12:45:00,
2013-04-14 08:55:00,57.6,56.8,30.06,ENE,70,1.0,1.0,97,0.00,,,0.00,Wunderground v.1.15,2013-04-14 12:55:00,
2013-04-14 09:00:00,57.9,57.1,30.05,ENE,70,1.0,2.0,97,0.00,,,0.00,Wunderground v.1.15,2013-04-14 13:00:00,
2013-04-14 09:10:00,58.6,57.8,30.06,ESE,103,1.0,1.0,97,0.00,,,0.00,Wunderground v.1.15,2013-04-14 13:10:00,
2013-04-14 09:15:00,58.9,58.1,30.06,ESE,103,1.0,1.0,97,0.00,,,0.00,Wunderground v.1.15,2013-04-14 13:15:00,
2013-04-14 09:25:00,60.0,59.1,30.06,ESE,103,0.0,0.0,97,0.00,,,0.00,Wunderground v.1.15,2013-04-14 13:25:00,
2013-04-14 09:30:00,60.4,59.3,30.06,ESE,117,1.0,1.0,96,0.00,,,0.00,Wunderground v.1.15,2013-04-14 13:30:00,
2013-04-14 09:40:00,61.4,60.0,30.06,ESE,116,2.0,2.0,95,0.00,,,0.00,Wunderground v.1.15,2013-04-14 13:40:00,
2013-04-14 09:45:00,62.0,60.3,30.06,ESE,111,2.0,2.0,94,0.00,,,0.00,Wunderground v.1.15,2013-04-14 13:45:00,
2013-04-14 09:55:00,63.2,60.2,30.06,ESE,111,2.0,2.0,90,0.00,,,0.00,Wunderground v.1.15,2013-04-14 13:55:00,
2013-04-14 10:00:00,63.8,59.9,30.06,ESE,111,1.0,1.0,87,0.00,,,0.00,Wunderground v.1.15,2013-04-14 14:00:00,
2013-04-14 10:10:00,64.7,59.8,30.06,ESE,111,1.0,1.0,84,0.00,,,0.00,Wunderground v.1.15,2013-04-14 14:10:00,
2013-04-14 10:15:00,65.3,60.0,30.06,SE,126,1.0,2.0,83,0.00,,,0.00,Wunderground v.1.15,2013-04-14 14:15:00,
2013-04-14 10:25:00,66.1,59.4,30.07,SE,146,1.0,2.0,79,0.00,,,0.00,Wunderground v.1.15,2013-04-14 14:25:00,
2013-04-14 10:35:00,67.1,57.0,30.07,SE,146,1.0,4.0,70,0.00,,,0.00,Wunderground v.1.15,2013-04-14 14:35:00,
2013-04-14 10:45:00,67.7,56.8,30.07,ESE,107,3.0,5.0,68,0.00,,,0.00,Wunderground v.1.15,2013-04-14 14:45:00,
2013-04-14 10:50:00,68.1,57.1,30.06,ESE,115,3.0,3.0,68,0.00,,,0.00,Wunderground v.1.15,2013-04-14 14:50:00,
2013-04-14 11:00:00,69.0,56.7,30.06,SE,138,4.0,5.0,65,0.00,,,0.00,Wunderground v.1.15,2013-04-14 15:00:00,
2013-04-14 11:05:00,69.0,55.9,30.06,ESE,109,4.0,7.0,63,0.00,,,0.00,Wunderground v.1.15,2013-04-14 15:05:00,
2013-04-14 11:15:00,69.3,54.8,30.06,SE,134,4.0,4.0,60,0.00,,,0.00,Wunderground v.1.15,2013-04-14 15:15:00,
2013-04-14 11:25:00,69.9,54.4,30.07,SSE,162,5.0,7.0,58,0.00,,,0.00,Wunderground v.1.15,2013-04-14 15:25:00,
2013-04-14 11:35:00,70.1,53.7,30.06,South,180,6.0,7.0,56,0.00,,,0.00,Wunderground v.1.15,2013-04-14 15:35:00,
2013-04-14 11:45:00,70.0,53.6,30.06,SE,142,6.0,10.0,56,0.00,,,0.00,Wunderground v.1.15,2013-04-14 15:45:00,
2013-04-14 11:55:00,70.3,53.4,30.06,SSE,151,6.0,8.0,55,0.00,,,0.00,Wunderground v.1.15,2013-04-14 15:55:00,
2013-04-14 12:05:00,70.4,53.0,30.05,SE,130,6.0,7.0,54,0.00,,,0.00,Wunderground v.1.15,2013-04-14 16:05:00,
2013-04-14 12:10:00,70.8,52.3,30.05,SE,138,6.0,9.0,52,0.00,,,0.00,Wunderground v.1.15,2013-04-14 16:10:00,
2013-04-14 12:20:00,71.2,54.2,30.06,SSE,167,5.0,5.0,55,0.00,,,0.00,Wunderground v.1.15,2013-04-14 16:20:00,
2013-04-14 12:25:00,71.4,52.9,30.06,SE,136,5.0,5.0,52,0.00,,,0.00,Wunderground v.1.15,2013-04-14 16:25:00,
2013-04-14 12:35:00,71.1,52.0,30.06,SE,132,7.0,9.0,51,0.00,,,0.00,Wunderground v.1.15,2013-04-14 16:35:00,
2013-04-14 12:45:00,71.3,52.2,30.06,ESE,114,7.0,10.0,51,0.00,,,0.00,Wunderground v.1.15,2013-04-14 16:45:00,
2013-04-14 12:55:00,71.5,52.9,30.07,SSE,150,5.0,9.0,52,0.00,,,0.00,Wunderground v.1.15,2013-04-14 16:55:00,
2013-04-14 13:00:00,71.3,52.8,30.07,SSE,149,6.0,6.0,52,0.00,,,0.00,Wunderground v.1.15,2013-04-14 17:00:00,
2013-04-14 13:10:00,71.7,53.1,30.07,SE,131,7.0,8.0,52,0.00,,,0.00,Wunderground v.1.15,2013-04-14 17:10:00,
2013-04-14 13:15:00,71.7,51.5,30.07,SE,134,8.0,8.0,49,0.00,,,0.00,Wunderground v.1.15,2013-04-14 17:15:00,
2013-04-14 13:25:00,71.7,53.7,30.06,SE,130,7.0,9.0,53,0.00,,,0.00,Wunderground v.1.15,2013-04-14 17:25:00,
2013-04-14 13:30:00,71.6,53.0,30.06,ESE,121,7.0,7.0,52,0.00,,,0.00,Wunderground v.1.15,2013-04-14 17:30:00,
2013-04-14 13:40:00,71.7,52.6,30.06,SE,128,8.0,8.0,51,0.00,,,0.00,Wunderground v.1.15,2013-04-14 17:40:00,
2013-04-14 13:50:00,71.9,51.7,30.06,SSE,156,9.0,9.0,49,0.00,,,0.00,Wunderground v.1.15,2013-04-14 17:50:00,
2013-04-14 14:00:00,72.3,53.7,30.05,SSE,154,9.0,9.0,52,0.00,,,0.00,Wunderground v.1.15,2013-04-14 18:00:00,
2013-04-14 14:05:00,72.2,54.1,30.05,SSE,165,8.0,13.0,53,0.00,,,0.00,Wunderground v.1.15,2013-04-14 18:05:00,
2013-04-14 14:15:00,72.4,55.3,30.05,SE,128,8.0,13.0,55,0.00,,,0.00,Wunderground v.1.15,2013-04-14 18:15:00,
2013-04-14 14:20:00,72.4,55.3,30.05,SSE,160,8.0,8.0,55,0.00,,,0.00,Wunderground v.1.15,2013-04-14 18:20:00,
2013-04-14 14:30:00,72.9,55.8,30.05,SE,125,7.0,7.0,55,0.00,,,0.00,Wunderground v.1.15,2013-04-14 18:30:00,
2013-04-14 14:35:00,72.8,55.2,30.04,ESE,111,7.0,9.0,54,0.00,,,0.00,Wunderground v.1.15,2013-04-14 18:35:00,
2013-04-14 14:45:00,72.7,56.1,30.04,SSE,153,8.0,9.0,56,0.00,,,0.00,Wunderground v.1.15,2013-04-14 18:45:00,
2013-04-14 14:55:00,72.2,56.6,30.04,East,101,9.0,9.0,58,0.00,,,0.00,Wunderground v.1.15,2013-04-14 18:55:00,
2013-04-14 15:05:00,72.4,57.7,30.03,SE,130,8.0,11.0,60,0.00,,,0.00,Wunderground v.1.15,2013-04-14 19:05:00,
2013-04-14 15:15:00,72.7,58.9,30.03,SE,131,6.0,10.0,62,0.00,,,0.00,Wunderground v.1.15,2013-04-14 19:15:00,
2013-04-14 15:20:00,72.8,59.0,30.03,SE,129,6.0,6.0,62,0.00,,,0.00,Wunderground v.1.15,2013-04-14 19:20:00,
2013-04-14 15:30:00,72.4,59.1,30.02,East,101,7.0,11.0,63,0.00,,,0.00,Wunderground v.1.15,2013-04-14 19:30:00,
2013-04-14 15:35:00,72.1,57.9,30.02,SE,132,7.0,11.0,61,0.00,,,0.00,Wunderground v.1.15,2013-04-14 19:35:00,
2013-04-14 15:45:00,72.2,58.9,30.02,East,96,6.0,7.0,63,0.00,,,0.00,Wunderground v.1.15,2013-04-14 19:45:00,
2013-04-14 15:50:00,72.0,59.2,30.02,SE,138,6.0,9.0,64,0.00,,,0.00,Wunderground v.1.15,2013-04-14 19:50:00,
2013-04-14 16:00:00,71.6,58.8,30.01,SE,132,7.0,7.0,64,0.00,,,0.00,Wunderground v.1.15,2013-04-14 20:00:00,
2013-04-14 16:05:00,71.4,58.6,30.01,SE,131,7.0,10.0,64,0.00,,,0.00,Wunderground v.1.15,2013-04-14 20:05:00,
2013-04-14 16:15:00,71.2,59.3,30.02,SE,126,6.0,7.0,66,0.00,,,0.00,Wunderground v.1.15,2013-04-14 20:15:00,
2013-04-14 16:25:00,71.1,58.3,30.03,SSE,150,7.0,9.0,64,0.00,,,0.00,Wunderground v.1.15,2013-04-14 20:25:00,
2013-04-14 16:35:00,71.1,58.7,30.03,SE,140,7.0,9.0,65,0.00,,,0.00,Wunderground v.1.15,2013-04-14 20:35:00,
2013-04-14 16:40:00,71.0,58.2,30.03,SSE,153,6.0,7.0,64,0.00,,,0.00,Wunderground v.1.15,2013-04-14 20:40:00,
2013-04-14 16:50:00,70.8,58.4,30.04,SSE,160,5.0,5.0,65,0.00,,,0.00,Wunderground v.1.15,2013-04-14 20:50:00,
2013-04-14 17:00:00,70.4,58.1,30.03,ESE,116,4.0,4.0,65,0.00,,,0.00,Wunderground v.1.15,2013-04-14 21:00:00,
2013-04-14 17:10:00,70.2,58.3,30.03,SE,130,2.0,3.0,66,0.00,,,0.00,Wunderground v.1.15,2013-04-14 21:10:00,
2013-04-14 17:20:00,69.9,58.4,30.03,ESE,122,3.0,3.0,67,0.00,,,0.00,Wunderground v.1.15,2013-04-14 21:20:00,
2013-04-14 17:25:00,69.9,58.0,30.04,SE,138,4.0,5.0,66,0.00,,,0.00,Wunderground v.1.15,2013-04-14 21:25:00,
2013-04-14 17:35:00,69.7,58.3,30.05,SE,136,3.0,4.0,67,0.00,,,0.00,Wunderground v.1.15,2013-04-14 21:35:00,
2013-04-14 17:40:00,69.6,59.0,30.05,SSE,147,3.0,3.0,69,0.00,,,0.00,Wunderground v.1.15,2013-04-14 21:40:00,
2013-04-14 17:50:00,69.3,58.7,30.05,SE,143,5.0,5.0,69,0.00,,,0.00,Wunderground v.1.15,2013-04-14 21:50:00,
2013-04-14 17:55:00,69.0,58.8,30.05,SSE,150,4.0,5.0,70,0.00,,,0.00,Wunderground v.1.15,2013-04-14 21:55:00,
2013-04-14 18:05:00,68.9,58.7,30.05,ESE,103,2.0,2.0,70,0.00,,,0.00,Wunderground v.1.15,2013-04-14 22:05:00,
2013-04-14 18:10:00,68.9,58.3,30.05,SSE,149,3.0,7.0,69,0.00,,,0.00,Wunderground v.1.15,2013-04-14 22:10:00,
2013-04-14 18:20:00,68.7,58.5,30.05,SE,136,4.0,4.0,70,0.00,,,0.00,Wunderground v.1.15,2013-04-14 22:20:00,
2013-04-14 18:25:00,68.6,58.8,30.05,SE,144,3.0,4.0,71,0.00,,,0.00,Wunderground v.1.15,2013-04-14 22:25:00,
2013-04-14 18:35:00,68.5,58.7,30.05,ESE,111,3.0,4.0,71,0.00,,,0.00,Wunderground v.1.15,2013-04-14 22:35:00,
2013-04-14 18:40:00,68.4,58.6,30.05,SE,129,3.0,3.0,71,0.00,,,0.00,Wunderground v.1.15,2013-04-14 22:40:00,
2013-04-14 18:50:00,68.1,58.7,30.03,East,91,2.0,2.0,72,0.00,,,0.00,Wunderground v.1.15,2013-04-14 22:50:00,
2013-04-14 18:55:00,67.9,58.5,30.03,ESE,103,3.0,3.0,72,0.00,,,0.00,Wunderground v.1.15,2013-04-14 22:55:00,
2013-04-14 19:05:00,67.6,58.6,30.03,East,101,3.0,3.0,73,0.00,,,0.00,Wunderground v.1.15,2013-04-14 23:05:00,
2013-04-14 19:10:00,67.4,58.8,30.03,East,92,3.0,3.0,74,0.00,,,0.00,Wunderground v.1.15,2013-04-14 23:10:00,
2013-04-14 19:20:00,67.1,58.9,30.02,ESE,123,3.0,3.0,75,0.00,,,0.00,Wunderground v.1.15,2013-04-14 23:20:00,
2013-04-14 19:25:00,67.0,58.8,30.02,ESE,105,4.0,4.0,75,0.00,,,0.00,Wunderground v.1.15,2013-04-14 23:25:00,
2013-04-14 19:35:00,66.7,59.3,30.03,East,98,3.0,5.0,77,0.00,,,0.00,Wunderground v.1.15,2013-04-14 23:35:00,
2013-04-14 19:40:00,66.5,59.1,30.02,ESE,105,4.0,7.0,77,0.00,,,0.00,Wunderground v.1.15,2013-04-14 23:40:00,
2013-04-14 19:50:00,66.3,59.6,30.02,East,94,6.0,6.0,79,0.00,,,0.00,Wunderground v.1.15,2013-04-14 23:50:00,
2013-04-14 20:00:00,66.2,60.2,30.02,East,98,6.0,6.0,81,0.00,,,0.00,Wunderground v.1.15,2013-04-15 00:00:00,
2013-04-14 20:10:00,66.1,60.4,30.01,East,90,5.0,7.0,82,0.00,,,0.00,Wunderground v.1.15,2013-04-15 00:10:00,
2013-04-14 20:20:00,66.1,60.4,30.00,ESE,104,7.0,9.0,82,0.00,,,0.00,Wunderground v.1.15,2013-04-15 00:20:00,
2013-04-14 20:25:00,66.1,60.4,30.00,ENE,69,7.0,9.0,82,0.00,,,0.00,Wunderground v.1.15,2013-04-15 00:25:00,
2013-04-14 20:35:00,65.9,60.2,29.99,ENE,76,5.0,6.0,82,0.00,,,0.00,Wunderground v.1.15,2013-04-15 00:35:00,
2013-04-14 20:40:00,65.8,60.5,29.99,East,93,4.0,9.0,83,0.00,,,0.00,Wunderground v.1.15,2013-04-15 00:40:00,
2013-04-14 20:50:00,65.8,60.5,29.99,ENE,71,7.0,7.0,83,0.00,,,0.00,Wunderground v.1.15,2013-04-15 00:50:00,
2013-04-14 21:00:00,65.7,60.4,29.99,ESE,107,4.0,9.0,83,0.00,,,0.00,Wunderground v.1.15,2013-04-15 01:00:00,
2013-04-14 21:05:00,65.7,60.4,29.99,ESE,109,5.0,9.0,83,0.00,,,0.00,Wunderground v.1.15,2013-04-15 01:05:00,
2013-04-14 21:15:00,65.5,60.2,29.98,East,99,5.0,5.0,83,0.00,,,0.00,Wunderground v.1.15,2013-04-15 01:15:00,
2013-04-14 21:20:00,65.5,59.9,29.97,East,91,6.0,8.0,82,0.00,,,0.00,Wunderground v.1.15,2013-04-15 01:20:00,
2013-04-14 21:30:00,65.6,59.6,29.97,ESE,103,9.0,9.0,81,0.00,,,0.00,Wunderground v.1.15,2013-04-15 01:30:00,
2013-04-14 21:35:00,65.6,59.6,29.98,ESE,105,7.0,9.0,81,0.00,,,0.00,Wunderground v.1.15,2013-04-15 01:35:00,
2013-04-14 21:45:00,65.5,59.5,30.00,ESE,123,6.0,7.0,81,0.00,,,0.00,Wunderground v.1.15,2013-04-15 01:45:00,
2013-04-14 21:50:00,65.6,59.3,30.02,ESE,121,5.0,5.0,80,0.00,,,0.00,Wunderground v.1.15,2013-04-15 01:50:00,
2013-04-14 22:00:00,65.8,59.5,30.02,ESE,113,3.0,3.0,80,0.00,,,0.00,Wunderground v.1.15,2013-04-15 02:00:00,
2013-04-14 22:05:00,65.8,59.5,30.02,East,98,3.0,3.0,80,0.00,,,0.00,Wunderground v.1.15,2013-04-15 02:05:00,
2013-04-14 22:15:00,66.1,59.7,30.04,South,177,4.0,7.0,80,0.00,,,0.00,Wunderground v.1.15,2013-04-15 02:15:00,
2013-04-14 22:20:00,66.2,59.5,30.03,SSE,150,4.0,5.0,79,0.00,,,0.00,Wunderground v.1.15,2013-04-15 02:20:00,
2013-04-14 22:30:00,66.1,59.7,30.03,SE,133,4.0,6.0,80,0.00,,,0.00,Wunderground v.1.15,2013-04-15 02:30:00,
2013-04-14 22:35:00,66.2,59.8,30.04,SSE,158,4.0,6.0,80,0.00,,,0.00,Wunderground v.1.15,2013-04-15 02:35:00,
2013-04-14 22:45:00,66.1,59.7,30.00,NE,54,4.0,4.0,80,0.00,,,0.00,Wunderground v.1.15,2013-04-15 02:45:00,
2013-04-14 22:50:00,65.8,59.8,30.01,ESE,121,4.0,4.0,81,0.00,,,0.00,Wunderground v.1.15,2013-04-15 02:50:00,
2013-04-14 23:00:00,65.4,59.8,30.01,SSE,148,3.0,6.0,82,0.00,,,0.00,Wunderground v.1.15,2013-04-15 03:00:00,
2013-04-14 23:10:00,65.7,59.7,30.01,SE,133,3.0,4.0,81,0.00,,,0.00,Wunderground v.1.15,2013-04-15 03:10:00,
2013-04-14 23:20:00,65.6,60.0,30.00,East,89,2.0,3.0,82,0.00,,,0.00,Wunderground v.1.15,2013-04-15 03:20:00,
2013-04-14 23:30:00,65.3,60.0,30.00,East,101,1.0,2.0,83,0.00,,,0.00,Wunderground v.1.15,2013-04-15 03:30:00,
2013-04-14 23:35:00,65.4,60.1,30.00,East,90,2.0,2.0,83,0.00,,,0.00,Wunderground v.1.15,2013-04-15 03:35:00,
2013-04-14 23:45:00,65.4,60.1,30.00,ESE,103,3.0,4.0,83,0.00,,,0.00,Wunderground v.1.15,2013-04-15 03:45:00,
2013-04-14 23:55:00,65.6,60.3,30.01,SE,128,3.0,3.0,83,0.00,,,0.00,Wunderground v.1.15,2013-04-15 03:55:00,